Location: Unspecified
(54.1780°N, 0.0000°E)
Time: 18:00:11
(UTC+00:00)

Altair - Pass Details

Date: 21 June 2019
Orbit: 1501 x 1683 km, 47.2° (Epoch: 14 July)

Event Time Altitude Azimuth Distance (km) Brightness Sun altitude
Rises 01:27:44 0° 280° (W) 4,838 10.0 -10.2°
Reaches altitude 10° 01:31:02 10° 274° (W) 3,874 9.4 -10.0°
Maximum altitude 01:40:03 41° 209° (SSW) 2,253 7.9 -9.5°
Drops below altitude 10° 01:49:15 10° 143° (SE) 3,940 9.4 -9.0°
Sets 01:52:39 0° 137° (SE) 4,928 9.9 -8.8°
